Wind_Speed
29 28 28 28 28 28 27 27 26 25 25 25 25 24 23 23 22 21 21 20 20 21 20 19 19 19 18 18 18 18 18 17 15 14 13 12 11 11 11 11 11 10 9 9 8 8 8 8 8 8 8 8 9 9 10 10 10 10 9 9 10 10 10 11 10 11 12 12 12 12 11 11 11 12 12 11 11 12 13 14 16 16 17 17 18
30 30 30 30 30 29 28 27 27 26 26 27 26 25 25 24 23 22 22 23 23 23 24 23 23 22 20 19 20 18 17 18 16 15 14 13 12 12 12 11 11 11 10 10 9 9 9 9 9 8 8 9 10 11 11 11 11 11 11 11 12 12 11 12 12 12 12 12 12 12 12 11 12 13 12 12 12 12 13 14 15 16 17 17 17
31 31 31 30 29 28 28 28 28 28 28 27 27 27 26 25 25 24 24 23 24 26 27 27 26 24 22 20 20 18 17 18 18 16 15 14 14 13 12 12 12 12 12 11 11 10 10 10 9 9 10 10 11 12 12 12 12 12 12 12 13 13 12 12 12 13 14 14 12 12 12 12 12 13 14 14 13 13 14 14 15 16 18 17 17
32 32 30 29 28 28 28 28 29 30 29 28 28 27 26 25 26 26 24 24 25 26 26 24 24 24 22 20 20 20 19 19 19 17 16 15 15 14 13 13 13 12 12 12 11 11 11 11 11 10 11 12 13 13 12 12 12 12 13 12 12 13 12 12 12 13 13 14 14 13 13 13 12 13 14 15 15 15 15 15 16 17 18 18 18
32 31 29 28 29 29 29 30 30 31 30 29 29 28 26 25 26 27 26 25 25 26 25 24 23 23 22 21 21 21 20 20 19 18 18 16 15 15 14 14 14 13 13 13 12 12 12 13 12 12 12 13 13 13 13 13 13 13 13 13 12 12 12 12 12 13 14 15 16 15 14 14 14 13 14 16 16 16 16 16 16 17 18 19 19
31 30 28 29 29 30 31 31 31 31 31 29 29 29 28 27 27 28 28 27 25 25 26 25 24 23 22 22 22 22 21 21 21 20 18 17 16 15 15 15 15 14 14 14 13 14 14 14 14 13 13 14 15 15 14 14 14 14 14 13 13 13 12 12 12 13 15 16 16 16 16 15 15 14 14 15 15 15 16 16 15 16 18 19 19
31 29 28 29 30 31 32 32 31 30 30 29 28 28 29 28 27 27 28 27 25 25 25 25 24 24 24 23 23 23 22 21 22 21 19 18 17 16 15 15 15 15 15 15 14 15 15 15 14 14 14 15 16 16 15 15 15 15 14 14 13 13 13 13 14 14 15 15 16 16 16 15 15 14 14 14 15 15 15 15 15 16 16 18 19
30 29 28 28 29 31 30 29 28 29 29 28 28 28 29 29 28 26 26 27 26 25 25 25 24 24 24 23 22 23 22 21 22 22 20 19 18 17 16 16 15 15 15 15 15 15 15 15 15 15 15 16 17 17 16 15 15 15 15 14 14 13 13 13 13 13 13 14 14 14 15 15 15 14 14 14 14 15 15 15 16 16 16 17 18
29 28 27 28 28 29 27 25 25 26 26 26 27 28 29 29 28 26 25 26 26 25 24 24 24 24 24 23 21 21 21 22 23 23 22 20 19 17 16 16 16 15 15 15 15 15 15 15 15 15 15 16 18 19 19 18 17 15 14 13 13 14 14 14 14 13 13 14 14 14 15 15 15 14 14 14 14 15 15 16 17 17 18 19 19
29 28 27 26 26 26 25 24 23 23 23 24 26 27 28 28 28 26 25 25 25 24 24 24 24 24 23 22 21 21 20 20 23 25 24 21 19 18 17 16 16 16 16 15 15 15 15 15 14 15 16 17 19 21 22 23 23 22 20 17 16 15 15 15 16 15 15 15 15 14 15 15 15 14 15 15 15 16 16 16 17 17 18 18 18
28 27 26 24 24 24 24 23 22 22 23 24 25 26 25 25 25 24 24 24 24 24 25 24 23 23 23 23 22 21 20 20 22 25 24 23 20 18 16 15 15 15 16 15 15 14 15 15 14 15 16 17 18 20 22 24 25 26 25 24 23 21 20 20 19 17 17 17 16 16 16 15 15 15 15 15 15 16 16 16 16 17 17 16 16
27 26 24 23 23 23 23 22 21 21 21 23 25 25 24 22 22 22 22 23 23 23 24 24 23 22 22 23 23 22 22 24 24 23 24 24 23 21 17 15 15 16 15 15 15 15 14 14 14 14 15 16 16 17 19 21 21 22 23 23 23 24 24 25 23 20 18 17 17 17 16 16 16 15 15 15 15 15 16 16 16 16 17 17 17
26 24 23 23 22 21 21 21 20 19 19 21 23 25 25 24 24 22 21 22 23 23 24 24 24 23 22 23 23 21 21 24 24 22 22 22 23 23 21 18 17 18 17 15 15 15 14 14 14 15 15 15 15 16 18 19 20 22 22 22 23 24 25 26 25 24 22 19 17 17 16 17 17 16 15 15 16 16 16 17 16 15 16 18 18
24 24 23 22 22 21 20 19 18 18 18 19 22 23 24 25 25 23 21 21 22 23 24 24 24 23 21 21 20 18 18 21 21 20 20 19 19 21 21 20 19 19 18 17 16 15 15 15 15 16 16 16 16 17 18 19 19 18 18 19 23 24 24 24 23 22 23 23 22 20 19 19 20 18 17 17 17 15 15 16 15 16 19 20 20
23 23 22 21 21 21 20 18 17 18 18 19 20 21 22 23 24 23 22 22 22 22 23 24 24 22 20 20 18 16 16 18 17 14 15 16 16 18 21 21 20 19 19 18 17 16 15 15 16 17 17 18 18 17 18 18 17 15 16 19 21 22 23 23 21 20 20 21 22 22 21 21 20 18 17 16 16 16 16 16 17 19 21 21 22
22 22 22 21 20 20 18 18 19 20 19 18 18 19 20 20 21 22 22 22 22 22 23 23 22 21 20 19 17 15 15 16 15 13 14 15 15 17 20 20 20 19 19 18 16 16 16 16 17 17 17 18 18 18 18 19 18 18 20 21 20 20 22 20 18 18 18 20 21 21 21 21 20 19 18 19 19 19 18 18 19 20 20 20 21
22 22 22 21 20 19 19 19 20 19 18 17 17 17 18 19 19 19 19 20 20 21 22 21 20 23 22 18 16 16 15 15 14 12 13 15 15 17 18 18 19 19 18 17 16 15 16 16 16 16 16 17 17 16 16 19 21 20 21 21 20 22 22 19 16 17 20 23 23 21 21 21 21 20 19 19 20 20 16 15 16 18 19 18 18
23 22 21 21 20 19 19 19 19 18 17 17 17 17 17 19 19 18 17 19 19 19 21 21 20 25 26 19 16 15 14 13 13 12 14 14 13 14 16 16 17 17 16 15 14 14 15 15 16 17 17 17 17 17 17 19 20 19 20 20 20 21 21 19 16 16 18 20 20 19 19 19 18 17 17 17 18 17 16 16 16 18 19 18 18
22 21 20 19 19 19 18 17 17 18 18 17 17 16 17 18 18 17 17 20 19 17 19 20 19 22 24 20 17 15 13 13 13 13 14 12 9 10 12 15 18 17 13 13 14 14 14 14 15 18 19 18 19 18 18 18 18 18 19 19 19 18 17 15 13 12 13 14 15 16 16 16 16 17 17 18 18 19 20 21 20 19 19 18 18
20 19 18 18 18 17 16 16 17 17 17 17 16 15 16 17 18 17 17 20 21 19 19 19 18 19 21 20 19 18 15 13 13 13 12 9 7 8 11 16 18 15 12 14 15 14 13 12 13 16 17 17 15 15 15 16 16 15 15 16 17 16 14 13 13 13 13 13 13 14 14 15 16 16 16 18 18 20 23 23 22 20 18 19 20
19 18 18 18 18 17 16 17 17 17 16 16 15 15 15 16 16 16 17 18 20 19 18 18 18 19 19 19 19 17 15 14 15 14 11 9 9 10 12 15 16 15 14 15 14 11 10 10 10 12 13 13 12 13 14 15 15 13 12 14 16 16 15 16 15 14 13 13 14 14 14 15 15 15 16 19 19 18 19 19 19 19 20 21 24
19 18 17 17 17 16 16 17 17 17 16 15 15 15 14 14 14 14 15 15 15 16 16 16 18 19 18 17 17 16 15 16 16 14 9 10 12 12 12 14 16 17 16 14 12 10 9 9 9 11 12 11 11 13 14 14 15 14 14 15 18 19 19 18 14 12 13 13 14 15 15 15 15 15 17 18 18 17 17 18 19 21 22 24 25
19 18 16 15 15 14 15 15 15 15 14 13 12 12 12 12 11 11 13 14 13 15 17 17 17 17 15 15 15 15 16 17 17 15 12 14 15 15 15 18 20 22 19 14 11 9 7 7 8 10 11 10 11 13 13 14 15 15 16 17 17 18 17 15 12 12 13 13 14 15 14 14 16 17 17 18 18 18 18 19 21 23 24 25 24
19 18 17 15 14 14 14 15 14 13 12 11 11 10 11 12 10 10 13 15 14 15 18 16 15 14 13 13 15 16 17 18 18 15 13 15 16 17 19 23 24 23 19 13 9 7 7 8 9 10 10 10 11 12 13 14 15 16 15 15 15 15 15 14 12 12 13 13 14 14 14 14 16 17 17 17 18 18 18 19 21 22 23 25 26
18 17 17 16 15 14 13 14 13 12 11 11 11 11 12 13 13 13 14 16 14 14 16 16 15 14 13 13 14 15 16 18 18 15 12 13 16 17 20 21 20 18 15 11 9 10 12 13 13 13 12 12 13 13 13 13 13 13 13 14 15 15 14 12 12 12 12 13 13 14 15 15 16 16 17 17 18 18 18 19 21 21 22 24 25
16 15 15 15 14 14 13 13 12 11 10 10 10 10 11 13 14 14 14 16 15 13 14 15 16 16 14 12 14 15 15 16 17 14 12 12 14 15 16 16 15 15 13 11 11 13 14 14 16 16 16 15 13 11 10 10 11 10 11 12 13 12 11 11 11 11 12 13 14 15 16 16 17 18 18 19 18 18 18 19 20 21 21 21 22
15 15 15 14 13 12 12 11 11 11 10 9 10 12 13 13 13 12 12 12 11 12 13 13 14 15 13 12 14 17 17 16 15 13 12 12 13 14 14 14 13 12 11 9 9 10 11 12 14 14 14 15 13 10 10 11 10 9 9 8 7 8 10 10 10 11 12 13 14 15 16 17 18 19 18 18 18 18 18 19 19 20 20 20 21
15 15 15 14 13 12 11 11 11 10 9 8 8 10 11 11 10 9 10 11 10 12 13 13 13 12 11 11 12 13 13 13 13 13 13 14 15 15 13 11 9 9 8 7 6 6 7 7 8 9 10 11 10 9 10 10 8 8 9 9 8 9 10 11 11 11 11 12 13 14 15 16 17 17 17 16 17 17 17 17 18 19 19 19 20
15 15 14 14 13 12 12 11 11 11 13 12 10 9 8 8 8 8 8 11 12 13 13 13 11 9 9 11 11 11 10 12 14 17 17 18 18 17 13 10 8 7 8 9 7 6 7 8 9 9 8 8 8 9 10 10 9 8 8 9 9 9 9 11 12 11 11 12 13 13 14 15 16 16 15 16 16 16 16 16 17 18 19 19 19
14 14 13 13 13 13 13 12 11 13 15 15 13 12 10 10 11 12 12 12 14 15 15 12 10 7 8 11 13 12 12 15 18 19 18 18 17 15 12 10 9 8 8 9 9 8 9 11 11 11 9 8 10 12 11 9 9 9 8 8 8 9 9 10 11 12 13 12 11 13 14 15 15 15 15 15 16 16 16 16 17 18 18 18 18
14 12 12 12 14 13 13 13 14 14 14 13 12 12 11 11 12 13 14 13 13 14 12 9 8 8 10 12 13 11 10 13 16 16 15 13 12 11 11 11 10 10 10 10 8 8 10 11 11 10 9 9 11 12 9 7 8 9 8 8 8 9 10 10 10 11 12 10 10 13 15 14 14 15 15 15 15 16 16 16 16 16 17 17 18
11 10 11 13 15 13 13 14 15 14 13 12 12 11 11 11 11 11 12 12 11 11 10 9 9 10 12 14 14 11 10 11 11 11 10 10 10 10 10 10 10 11 11 9 7 8 9 9 9 9 9 9 10 8 7 7 7 8 8 9 9 9 10 10 7 8 10 11 12 13 14 14 14 14 14 15 15 16 16 15 15 16 16 17 18
9 12 13 14 14 13 14 14 14 13 12 12 12 11 11 10 9 9 10 11 11 11 11 12 11 11 11 12 11 10 9 8 8 8 8 8 8 8 8 8 7 7 7 7 7 8 8 8 8 7 7 8 8 7 6 7 7 8 9 9 9 11 12 10 6 8 10 11 11 12 13 13 13 13 14 14 15 14 15 15 16 16 16 16 18
10 11 11 12 13 14 14 12 12 12 12 12 12 12 11 11 12 12 11 11 10 10 10 11 11 11 11 10 9 9 9 8 8 7 7 6 6 6 6 6 6 6 7 7 7 7 7 7 7 7 7 7 6 7 7 6 7 8 9 9 11 13 13 10 10 10 10 9 10 11 12 12 12 13 13 14 14 14 15 15 15 15 16 16 18
10 10 10 11 12 13 12 11 12 13 13 12 12 12 11 11 12 13 12 11 10 10 10 10 10 11 11 11 10 10 9 8 8 7 6 6 6 6 7 7 8 8 7 7 6 6 7 7 6 6 6 6 4 5 6 6 7 8 9 11 13 12 11 11 10 10 9 9 10 12 12 11 12 13 13 14 14 14 15 15 15 15 16 17 18
11 12 11 11 11 11 11 12 12 12 12 12 11 10 11 11 10 10 10 10 11 12 11 11 11 11 11 11 11 10 10 9 8 7 7 7 8 9 10 9 8 8 8 6 5 4 5 6 5 5 5 5 4 4 6 8 9 9 9 11 12 12 11 11 9 8 8 10 11 12 11 11 11 12 13 13 14 14 14 15 15 15 16 17 18
12 12 11 10 10 11 12 12 12 12 11 11 10 10 10 9 9 9 9 9 10 11 12 12 12 11 10 10 10 10 10 10 8 8 8 9 11 13 12 10 7 7 8 6 5 5 5 6 6 5 5 5 6 6 8 9 9 9 9 10 11 11 11 11 10 9 10 11 11 10 10 10 11 11 12 13 14 14 14 14 15 16 17 17 18
10 11 12 11 11 11 11 12 12 13 11 9 9 10 9 9 9 9 9 10 11 11 11 11 11 10 9 10 11 10 10 9 9 9 10 11 12 14 13 9 7 6 6 6 5 5 6 6 5 5 5 6 7 8 8 9 9 10 11 10 10 9 10 10 10 10 10 10 10 9 9 10 10 11 12 13 13 14 14 14 15 16 16 17 17
10 11 13 12 10 10 11 11 11 11 10 9 9 9 9 9 10 10 9 10 12 12 12 12 11 10 11 14 14 12 11 10 9 10 10 11 11 11 10 8 6 6 6 4 3 4 6 5 4 5 5 6 7 7 8 9 9 10 11 11 10 9 9 8 8 8 7 8 8 8 8 10 10 10 12 12 13 14 14 15 15 16 16 17 17
9 10 11 10 8 9 10 10 10 9 9 9 9 9 9 9 10 10 9 10 11 11 11 11 10 10 13 16 16 14 13 12 11 12 11 11 10 9 8 7 6 5 5 5 4 5 6 5 4 5 5 6 7 8 8 9 10 10 10 9 9 9 9 8 7 7 7 7 8 8 8 9 10 11 12 12 13 14 15 15 15 15 16 16 17
8 9 8 8 8 9 9 9 8 8 8 8 9 9 9 8 8 8 8 8 8 8 9 8 7 9 14 16 15 13 12 11 10 11 11 10 9 9 8 7 5 5 6 6 5 5 6 6 6 6 7 7 8 9 9 10 9 9 9 9 8 8 8 8 7 6 6 7 7 8 8 9 10 11 12 13 14 14 14 14 15 15 16 16 16
7 8 9 8 8 8 7 8 9 9 9 9 8 9 9 8 7 7 7 7 7 7 7 7 7 10 14 16 14 12 11 10 8 8 9 8 7 7 7 7 5 5 6 7 6 6 7 7 8 8 8 9 9 10 9 9 8 8 9 9 8 7 7 7 6 5 6 7 7 7 8 9 10 11 12 13 14 14 14 14 14 14 15 16 16
6 7 8 9 9 8 8 9 10 9 9 9 9 9 9 8 7 6 6 7 6 6 7 7 8 11 12 12 11 11 11 10 7 7 8 8 7 6 6 7 7 8 9 8 7 8 8 8 9 9 9 9 9 8 7 6 6 7 8 8 7 6 6 7 6 5 5 6 6 7 8 9 10 11 12 12 13 14 14 14 14 14 15 16 16
5 7 8 9 9 9 9 10 9 9 9 10 9 9 8 7 7 6 6 7 6 6 6 7 9 10 9 7 7 9 12 12 9 7 7 7 7 7 8 7 6 6 7 6 5 6 6 7 7 8 8 7 6 5 5 5 7 7 7 7 7 6 6 6 5 5 5 6 7 8 9 9 10 11 11 12 13 14 14 14 14 15 15 15 16
7 7 8 9 9 10 10 9 9 9 10 10 9 7 6 6 6 6 6 7 7 7 7 8 9 9 7 6 6 9 11 11 9 8 8 9 9 9 9 7 3 1 3 5 5 4 5 6 7 6 6 5 5 4 5 6 7 7 6 6 6 5 4 4 4 4 5 6 7 8 8 9 10 11 11 12 13 13 14 14 14 14 15 15 15
8 8 9 10 10 10 10 10 10 9 9 8 8 7 6 6 6 6 6 7 7 7 7 8 9 9 8 7 7 8 9 9 9 9 9 10 9 9 8 7 5 4 5 6 5 4 4 6 6 5 5 5 5 5 5 5 6 6 6 6 6 5 4 3 3 4 5 6 7 8 8 9 10 11 11 12 13 13 13 14 14 14 14 15 15
7 8 9 9 9 9 9 10 10 8 7 7 8 6 5 6 6 6 6 6 6 6 7 7 7 8 8 7 7 7 8 9 10 10 10 9 9 9 8 7 7 7 7 7 6 6 6 5 5 5 6 6 5 5 5 5 5 5 5 5 5 5 5 5 3 4 5 6 6 8 9 10 10 11 11 12 12 13 13 13 13 14 14 14 15
5 6 6 6 7 9 9 8 8 7 6 7 8 7 6 7 6 7 7 7 7 8 9 9 8 7 7 7 8 7 8 8 9 10 9 9 9 10 10 8 7 8 8 8 8 7 7 6 6 6 6 6 6 6 6 6 6 5 4 5 7 8 10 9 7 6 7 8 8 8 9 10 10 11 11 11 12 12 13 13 12 13 14 14 14
3 5 5 5 7 9 9 7 8 8 7 7 8 7 7 7 7 7 7 7 6 7 8 7 7 6 6 6 7 7 7 8 8 9 10 10 10 10 10 10 9 9 10 9 8 8 8 7 7 7 7 7 7 7 6 6 6 5 5 7 10 10 10 9 7 7 8 8 8 8 9 10 10 10 10 11 11 11 12 12 12 13 14 13 13
5 6 6 6 8 10 10 8 8 8 8 8 8 8 8 7 7 8 7 7 6 6 6 5 6 7 7 7 8 8 9 9 10 10 11 11 11 11 11 11 11 11 11 11 10 10 9 8 8 8 8 8 8 8 7 7 6 7 8 10 10 9 7 6 5 6 7 7 7 8 8 9 10 9 10 10 10 10 11 11 12 12 13 12 12
5 6 7 8 9 9 8 7 7 8 8 8 8 9 8 7 7 7 7 7 7 8 7 7 8 9 9 9 10 11 11 11 11 12 12 12 13 13 13 13 12 13 12 12 12 11 11 10 10 9 9 9 9 8 8 8 9 10 12 12 10 8 7 5 5 7 7 8 8 8 8 8 9 9 9 9 9 9 11 11 11 12 12 11 11
Wind_Direction
186 187 191 195 196 197 196 196 196 196 195 197 199 200 201 200 200 196 191 190 189 189 189 191 192 194 197 197 195 192 188 188 190 191 195 200 206 214 219 216 215 220 226 228 229 231 233 239 245 248 252 255 255 254 255 253 252 256 259 262 263 260 257 261 268 276 278 278 278 280 282 281 278 278 279 281 283 283 283 284 284 283 283 283 284
187 189 192 195 195 194 194 194 194 194 194 196 197 198 199 198 197 194 191 189 189 189 190 190 191 193 194 195 195 194 189 187 188 189 193 199 203 210 217 216 215 221 226 228 230 234 237 241 247 251 254 256 258 256 253 252 252 254 254 254 257 258 257 260 268 276 281 282 281 282 283 279 275 276 280 282 285 286 284 283 282 282 282 282 283
189 191 192 194 193 192 193 193 193 193 193 194 197 199 198 195 193 192 191 189 189 192 193 190 189 189 190 191 192 193 191 189 190 191 192 198 203 207 213 215 217 222 227 231 232 233 240 244 246 250 253 254 255 256 254 251 249 250 250 251 253 258 259 262 268 275 282 287 285 284 284 281 280 282 283 284 285 283 281 281 282 282 282 282 283
192 192 191 191 189 190 192 192 193 194 194 195 198 200 198 195 192 190 190 190 191 192 193 190 186 185 188 189 190 192 192 189 192 194 193 197 203 209 214 217 221 227 231 235 236 237 242 247 247 247 249 253 254 254 252 249 246 245 246 246 249 255 260 261 263 270 280 286 286 285 285 285 284 282 281 281 281 280 280 281 281 280 279 280 281
193 191 190 189 189 190 192 193 194 194 194 196 198 200 201 198 194 190 190 194 192 188 187 187 186 185 187 189 190 193 192 189 192 196 195 198 204 209 215 220 226 231 235 239 241 243 246 249 249 247 245 249 252 252 250 247 244 244 245 246 246 251 259 262 263 267 273 280 284 286 286 284 284 281 277 278 279 279 278 277 276 277 279 280 279
193 190 188 189 189 190 193 195 195 194 194 196 199 201 203 201 196 192 192 194 191 186 185 185 185 185 187 190 191 192 190 189 195 198 197 199 205 211 216 223 229 233 237 241 243 246 248 249 250 248 246 247 248 249 249 247 246 246 246 248 249 252 257 261 264 267 270 275 280 284 284 283 282 280 276 275 278 278 279 279 278 277 276 275 275
191 187 187 189 189 191 195 195 193 193 195 197 199 202 204 204 199 194 192 193 191 187 185 184 184 185 187 190 192 192 188 188 196 200 199 201 206 213 219 225 231 235 239 242 244 247 248 249 250 248 246 247 248 251 251 251 250 248 247 248 251 252 256 260 264 267 268 272 275 278 282 284 284 282 278 274 271 271 274 278 278 276 273 272 274
188 185 186 189 190 192 193 193 193 196 198 197 198 202 204 204 201 196 192 192 192 189 186 184 184 185 187 190 193 192 188 187 195 199 198 201 208 214 222 229 233 238 242 244 246 248 248 249 251 250 247 245 246 250 252 253 253 252 250 249 249 252 257 261 265 266 264 266 270 274 278 280 281 282 281 276 271 271 272 275 278 279 278 276 276
186 184 186 190 191 190 190 191 194 197 199 198 197 200 202 201 199 196 194 192 192 191 188 185 184 185 186 189 192 193 189 188 196 200 197 199 207 215 223 231 236 241 245 247 248 248 250 252 253 254 252 247 245 246 248 250 251 252 253 251 250 253 256 261 265 265 263 264 268 272 274 275 275 277 278 275 275 278 279 279 281 282 282 280 278
183 185 186 188 187 186 187 192 195 196 199 201 200 200 201 198 195 194 192 191 190 191 189 187 185 185 184 185 189 193 192 192 201 206 202 199 206 216 223 231 238 244 247 249 250 250 252 255 256 258 257 253 249 247 248 250 250 251 255 257 255 255 257 263 267 267 266 268 271 273 274 273 273 274 275 275 277 280 281 282 283 285 286 284 281
182 184 184 183 182 183 186 190 193 195 200 207 208 205 201 197 196 193 188 187 189 189 189 189 187 185 184 185 187 189 191 197 206 210 209 205 206 213 222 230 239 246 247 247 249 252 254 257 260 261 258 255 253 250 251 254 255 256 258 257 255 255 257 262 265 267 269 271 273 273 273 273 274 276 278 280 281 282 284 285 285 286 286 285 285
180 182 181 180 181 183 186 189 193 196 201 210 216 212 205 200 200 197 189 186 188 187 187 188 187 185 184 184 186 188 193 202 209 213 215 214 212 215 223 232 241 247 247 245 248 251 254 257 260 262 260 257 255 255 256 257 258 260 260 258 257 257 258 259 258 259 262 266 269 270 270 274 276 276 279 283 287 287 286 284 282 282 284 283 285
178 179 179 178 178 181 185 188 194 199 202 212 218 215 211 208 206 204 195 188 187 187 187 188 187 186 184 184 186 188 195 207 213 215 219 222 223 226 230 235 242 247 247 246 247 249 252 255 258 261 263 262 261 260 259 258 258 258 257 257 259 259 259 258 255 253 253 256 261 264 267 272 275 275 278 283 286 285 282 280 280 282 282 282 283
176 179 180 180 181 185 190 191 197 204 207 215 218 216 214 213 211 209 203 194 190 189 189 188 188 186 182 180 182 184 194 208 213 213 218 225 230 233 233 234 239 244 246 247 248 250 252 255 258 262 264 264 263 262 258 257 257 253 249 254 258 258 259 259 256 252 249 248 252 256 261 266 271 276 279 279 279 278 277 280 283 283 283 283 283
176 179 180 180 180 187 194 194 200 207 209 214 218 217 216 215 212 210 208 202 198 196 194 189 184 183 180 177 178 181 192 204 205 206 218 226 231 235 234 234 237 241 244 246 247 250 252 253 258 264 266 265 264 263 260 258 257 256 257 259 256 253 255 255 254 252 248 245 248 253 256 259 264 272 275 273 273 274 277 281 283 282 281 281 280
175 178 180 179 180 187 193 195 201 208 208 211 216 218 217 214 212 212 212 209 204 202 201 191 179 176 176 173 176 181 193 201 199 204 221 228 233 237 236 235 238 240 243 245 247 250 251 253 259 264 266 267 265 261 258 259 261 265 269 268 264 263 265 262 255 253 250 249 251 251 252 257 264 272 277 276 275 278 281 281 278 275 275 277 277
175 178 180 181 182 186 191 196 202 206 208 210 215 219 218 214 213 212 210 209 204 199 203 200 183 174 174 174 180 184 188 192 194 204 222 228 232 236 235 237 240 242 243 246 248 250 254 257 260 264 267 269 269 267 266 268 269 270 272 274 277 278 276 271 266 268 266 262 260 257 255 261 270 278 282 281 280 281 280 275 271 271 272 276 279
175 176 178 180 181 185 190 197 201 203 207 211 214 219 218 214 212 205 199 207 207 199 204 209 193 181 180 181 181 180 183 196 208 219 222 220 227 234 234 240 246 246 244 245 246 249 255 260 262 263 265 266 270 276 280 276 272 273 277 280 281 280 277 274 275 282 278 268 261 258 258 264 274 281 281 280 279 274 263 258 265 272 274 278 283
173 174 176 176 178 183 189 194 199 203 206 209 212 215 213 211 209 198 193 206 212 204 204 209 201 190 188 188 186 189 202 212 212 210 208 206 218 233 235 244 250 248 243 244 247 252 259 264 264 265 267 266 268 275 280 276 272 274 277 279 279 279 281 283 283 288 286 272 261 260 263 270 278 280 281 283 282 276 264 257 259 267 273 278 282
169 169 169 169 172 179 187 193 197 201 205 208 211 212 211 210 206 197 193 203 212 209 201 202 205 197 189 188 193 198 203 196 177 175 185 196 220 239 237 242 249 250 246 248 251 257 264 263 262 268 272 271 269 274 279 280 276 273 272 275 279 282 286 292 292 292 292 285 277 274 272 274 275 274 276 277 276 276 270 259 254 258 265 271 277
162 162 163 166 171 178 185 191 194 198 202 204 208 211 211 208 202 194 191 199 211 212 200 197 208 206 194 192 194 193 192 182 165 164 180 200 223 235 231 235 246 251 247 248 252 257 265 267 267 269 269 266 267 270 275 280 281 276 267 266 273 278 283 288 292 293 290 285 284 282 278 277 276 274 276 277 274 275 274 265 258 258 261 269 282
154 155 160 165 170 177 184 188 192 196 198 201 206 209 206 200 195 191 191 195 205 206 197 198 209 208 197 191 186 180 184 184 173 169 192 218 224 222 216 223 240 245 240 240 246 250 262 274 276 273 269 265 265 265 268 275 281 278 268 262 266 273 278 282 287 288 285 283 283 281 279 279 279 277 281 285 285 286 289 286 281 278 278 285 294
146 149 156 164 171 179 184 186 191 196 198 200 203 198 190 188 188 186 187 192 197 201 203 205 205 199 188 180 175 170 175 180 174 170 188 210 214 212 210 214 226 234 234 236 245 252 261 266 265 270 273 269 263 262 265 273 277 277 274 270 272 275 277 280 282 279 278 278 277 277 277 278 280 284 290 294 295 296 297 293 290 290 292 293 292
146 149 152 161 173 181 184 188 191 193 194 196 193 184 180 185 191 188 188 190 192 197 200 199 197 194 182 168 169 172 171 170 167 165 180 201 209 213 213 212 218 227 231 231 236 247 252 249 254 266 272 269 264 263 267 274 277 276 274 271 271 273 276 279 277 272 271 273 273 273 275 277 284 293 298 300 300 303 302 295 292 292 291 289 288
147 148 151 159 172 181 185 188 189 186 189 194 195 189 182 188 200 203 198 198 199 194 188 184 187 194 190 176 173 173 166 161 160 162 179 203 213 214 211 211 219 229 229 222 225 238 246 253 262 272 274 274 274 274 277 279 275 270 269 270 272 274 272 268 265 265 268 272 275 279 283 288 294 299 302 303 304 306 303 295 291 290 290 291 292
144 147 153 161 169 177 183 185 184 180 180 187 198 197 185 187 199 205 205 208 205 189 179 180 185 190 194 188 174 162 154 155 160 166 181 202 212 212 212 218 228 232 228 226 232 243 253 261 269 275 277 278 278 275 272 269 264 266 274 277 273 266 258 257 265 274 277 280 287 292 295 298 300 301 303 303 300 298 296 293 293 294 296 299 299
146 149 155 159 164 171 178 180 179 178 177 180 194 202 199 197 201 204 206 205 189 171 171 178 181 185 187 178 162 156 154 158 164 174 190 204 210 211 214 221 227 228 228 228 233 245 256 265 273 279 280 277 270 256 247 248 254 264 268 264 255 255 259 267 276 282 287 293 298 297 295 298 299 298 299 297 292 292 295 297 299 301 302 301 299
151 152 154 158 162 168 174 177 176 171 163 162 176 187 194 196 192 191 196 189 173 168 171 168 168 175 170 153 152 160 164 165 171 183 196 203 204 204 205 207 208 212 211 205 209 220 224 238 262 273 270 266 260 248 240 239 242 248 247 244 247 258 267 273 274 272 275 280 282 283 288 296 298 297 295 292 291 295 300 301 301 301 300 299 295
153 153 155 158 161 166 170 173 167 150 135 132 132 133 150 166 156 145 162 176 177 174 166 157 157 158 145 142 160 181 184 181 188 197 199 195 191 188 187 187 185 187 194 199 209 218 217 229 251 257 249 244 240 235 232 229 230 236 240 245 256 266 269 269 271 272 272 273 278 288 297 299 296 294 293 293 295 300 302 302 301 298 295 293 290
152 154 159 161 160 163 165 160 147 134 130 131 126 117 122 140 141 131 134 151 166 168 161 159 163 158 150 160 176 189 192 187 189 193 190 184 181 183 187 191 189 191 206 218 227 235 243 254 264 262 251 240 240 243 241 233 234 241 244 248 260 272 275 273 275 278 278 282 298 307 302 295 292 292 295 297 300 302 303 301 297 294 293 292 292
154 161 167 157 149 153 157 149 138 130 128 132 131 123 118 121 129 134 134 137 150 158 157 160 165 162 168 175 176 174 175 173 175 182 187 191 198 206 211 213 214 222 234 239 238 242 250 258 263 265 260 250 250 254 250 238 239 250 262 264 259 264 277 286 295 296 290 292 304 302 294 291 293 295 297 300 302 302 302 300 298 297 297 297 299
160 151 142 136 137 144 148 144 139 134 132 136 142 142 134 124 122 131 139 144 154 162 167 171 167 160 170 181 181 176 168 166 171 183 195 200 205 210 215 220 225 231 235 234 232 239 249 253 257 263 264 259 258 260 256 254 254 260 272 276 272 275 280 280 293 319 316 303 296 293 291 290 293 295 297 300 300 300 300 301 303 303 302 302 304
146 124 121 129 135 138 138 140 141 139 137 143 149 151 149 144 135 134 142 150 157 161 165 169 166 159 163 176 184 186 182 181 185 188 188 189 192 199 209 217 222 224 220 220 230 241 248 252 257 261 262 263 267 267 263 267 270 273 282 290 289 285 279 274 294 326 319 298 286 286 288 290 294 297 300 300 299 299 302 305 305 305 306 307 309
133 125 130 141 143 141 141 147 149 145 143 147 151 153 153 152 151 152 154 153 148 143 146 154 162 167 171 176 181 180 176 175 176 175 175 183 191 200 208 210 209 205 204 218 242 255 255 256 263 268 268 270 276 276 274 273 274 277 283 284 277 275 281 298 314 313 300 289 288 292 294 297 301 301 300 301 300 301 304 306 306 308 311 311 312
129 126 132 145 151 151 151 152 149 146 148 151 153 155 155 154 158 164 163 154 145 137 132 141 157 169 175 174 169 163 160 160 164 169 176 187 195 199 201 203 202 200 203 218 242 256 260 265 272 278 277 280 294 312 308 291 276 275 276 276 279 290 305 311 301 290 290 296 298 298 297 298 299 299 298 300 302 304 306 307 308 312 313 312 313
135 131 134 144 149 146 145 145 144 144 148 153 155 156 154 155 161 166 160 150 144 137 129 132 145 154 159 162 158 155 157 161 166 173 182 191 197 199 204 214 212 196 190 201 225 246 264 277 285 287 283 281 289 302 291 275 272 279 284 285 293 303 307 301 296 300 308 301 293 293 295 294 297 300 300 302 305 306 307 309 311 313 313 312 313
139 139 144 143 136 136 140 142 141 140 144 150 154 153 153 157 161 161 156 150 143 135 129 130 137 139 143 153 157 158 162 165 169 181 190 196 202 207 218 240 245 212 199 214 236 247 255 265 271 272 272 271 265 261 261 263 269 277 281 286 292 290 285 292 302 303 297 291 288 289 292 293 298 302 302 305 308 308 309 313 314 313 313 313 313
120 127 139 138 135 140 141 135 136 141 146 150 153 154 156 158 159 160 160 154 149 143 136 138 146 150 153 158 162 165 168 169 175 188 195 199 205 212 223 244 260 251 243 245 246 247 250 254 256 256 256 259 262 263 266 268 270 275 281 291 296 280 262 269 282 277 270 276 282 285 292 300 304 306 307 308 308 310 314 317 315 314 315 316 317
103 112 128 135 139 143 141 137 142 151 154 153 154 158 160 160 163 170 172 167 165 162 152 152 166 173 165 161 162 167 173 178 184 189 193 197 204 214 226 238 244 249 255 252 240 246 254 255 251 250 255 264 272 279 280 275 276 286 292 295 291 274 258 261 273 271 265 276 288 295 303 305 306 309 311 311 312 316 318 316 313 316 318 318 320
121 122 131 141 144 139 136 141 148 154 156 154 153 157 163 166 171 176 174 170 172 169 162 166 181 181 168 163 164 169 178 189 192 188 187 193 201 212 228 238 238 237 241 242 240 246 251 252 245 240 247 260 269 273 272 271 276 287 288 278 269 268 270 273 276 276 280 289 296 300 302 305 312 314 313 313 315 316 314 313 315 320 320 319 321
127 127 138 151 148 140 142 149 153 151 151 154 155 156 158 160 165 168 167 167 171 172 171 174 173 164 165 169 171 176 191 207 208 195 190 197 208 216 225 232 238 241 240 239 234 231 242 255 255 244 241 246 252 258 264 270 277 281 276 267 263 266 271 272 268 272 283 289 293 299 305 312 316 314 311 312 314 313 315 319 321 322 322 322 324
138 139 151 158 156 157 160 157 151 150 154 158 159 155 152 154 160 163 163 165 168 173 176 164 131 132 156 171 176 187 210 232 229 206 200 206 214 223 226 227 235 245 249 250 240 217 215 233 247 249 251 252 254 258 263 269 275 275 269 267 266 263 265 271 271 272 282 286 291 304 311 312 311 309 307 310 314 317 321 324 323 324 326 326 326
168 165 168 167 168 174 170 156 153 159 162 157 152 148 149 154 160 160 162 165 168 175 180 164 135 132 151 168 178 195 220 235 227 207 208 210 209 215 222 228 235 237 235 238 234 219 215 231 247 253 257 256 253 256 261 266 274 274 269 269 271 266 266 275 278 279 287 293 301 309 310 309 309 310 310 314 319 321 322 323 326 329 329 327 326
187 179 173 168 165 161 157 155 158 157 148 141 141 144 151 159 164 166 169 171 175 184 186 169 151 144 150 168 188 202 215 222 217 207 208 208 207 215 226 229 232 234 236 249 259 251 248 256 258 255 255 250 241 247 259 264 267 267 266 267 270 264 258 266 276 291 304 307 307 309 309 310 311 311 314 319 322 321 321 326 330 330 328 328 329
184 176 167 160 153 149 149 151 149 141 139 143 147 151 161 172 173 172 170 169 175 187 186 172 164 159 158 170 187 195 206 216 215 205 207 213 216 222 227 223 205 210 249 258 260 256 255 257 255 250 247 241 235 241 253 254 253 256 260 261 262 264 268 273 282 297 306 307 306 306 308 312 314 314 318 321 320 319 324 328 330 330 330 329 330
173 170 165 159 156 157 156 150 145 151 164 168 161 157 166 171 168 167 167 166 172 182 181 176 177 177 173 175 183 190 204 219 219 210 213 224 229 230 229 227 223 233 247 245 237 232 240 249 249 241 233 232 233 235 240 244 241 240 244 249 254 267 281 284 293 309 310 308 310 309 308 312 312 312 314 318 318 320 325 327 328 332 332 329 328
161 167 168 162 160 163 159 148 151 170 186 172 154 152 158 157 155 160 163 164 172 182 183 182 186 186 184 187 194 196 202 217 225 224 223 228 235 237 236 230 223 229 240 243 239 235 228 222 224 226 220 218 222 224 229 238 236 226 227 230 228 232 238 239 263 319 315 305 309 312 307 307 309 309 314 319 319 319 322 325 330 335 332 327 329
163 169 171 161 153 156 154 151 158 175 178 160 154 160 163 158 160 166 167 172 189 198 192 187 190 195 194 196 201 203 206 218 233 239 237 233 232 233 236 233 225 231 242 244 239 236 225 207 206 213 210 208 216 222 224 228 226 218 217 219 217 226 242 251 262 283 283 282 295 304 300 300 304 307 312 316 316 317 321 326 333 335 330 327 332
164 160 155 139 138 148 159 166 171 175 172 162 162 171 174 172 176 182 182 188 205 210 201 194 198 211 216 213 212 219 225 231 240 246 246 244 239 235 232 225 218 226 242 246 240 236 230 212 201 201 204 207 214 216 215 219 220 214 213 221 228 242 258 267 271 276 276 281 292 296 294 298 302 305 309 312 313 317 323 328 333 333 327 327 334
146 150 161 172 172 173 178 180 176 174 173 169 171 180 186 186 185 186 187 189 193 199 208 213 214 220 228 227 226 231 235 237 242 246 248 247 245 241 236 227 216 220 237 247 243 237 235 226 209 202 203 206 208 209 212 215 213 208 212 223 238 256 272 280 288 296 296 292 288 286 290 297 299 301 306 310 314 321 326 328 329 328 326 328 336
156 166 184 195 192 183 179 180 183 184 184 184 183 180 182 189 192 189 190 194 195 199 209 215 216 221 226 224 223 227 228 230 236 242 245 247 248 247 245 240 228 221 230 242 242 237 237 236 227 213 204 203 207 209 209 210 209 212 220 232 248 267 279 289 306 316 315 305 292 283 283 289 294 298 305 310 316 324 324 321 322 324 326 332 338
Height
751 754 757 759 761 763 767 770 773 776 778 781 783 785 787 788 790 792 794 796 798 800 802 804 806 808 810 811 812 812 813 815 817 819 821 822 823 825 825 826 827 828 828 828 828 828 828 828 829 829 829 829 829 829 829 830 830 830 830 830 829 830 829 829 827 825 825 825 825 824 824 824 823 823 823 822 822 821 821 820 819 818 818 817 815
746 748 750 753 756 759 763 766 769 772 774 776 779 780 782 784 786 788 790 792 793 795 797 798 801 803 806 808 809 810 811 813 814 816 818 820 821 823 824 825 826 826 826 827 827 827 827 827 828 828 828 828 828 827 828 828 828 828 828 828 828 828 828 827 826 824 823 823 823 822 822 822 821 820 820 820 820 819 819 818 817 816 816 815 813
740 742 745 748 752 756 759 762 765 767 769 772 774 775 778 780 783 785 786 788 790 792 793 793 795 798 802 804 806 809 810 811 812 813 815 817 819 821 822 823 824 824 824 825 825 825 825 826 826 826 826 826 826 826 826 826 826 826 826 826 826 826 826 826 825 824 822 821 821 821 820 820 819 818 818 818 818 817 816 815 815 814 814 813 812
735 737 740 745 749 752 755 757 760 762 764 767 769 771 774 777 779 781 784 786 787 789 791 793 794 796 799 801 804 806 807 808 810 811 812 814 817 818 820 821 821 822 822 823 823 823 823 823 824 824 824 824 824 824 824 824 824 824 824 824 824 824 824 824 824 823 822 820 819 819 819 818 817 817 817 816 816 815 814 813 813 812 812 811 810
729 733 737 741 745 748 750 752 754 756 759 762 764 768 771 773 775 777 779 781 782 784 787 791 792 794 796 798 801 803 803 805 807 809 810 812 814 816 817 819 819 820 820 820 821 821 821 821 821 822 822 822 822 822 822 822 822 822 822 822 822 822 822 822 822 822 821 819 818 817 817 817 816 815 815 814 813 812 811 811 810 810 809 808 807
724 729 733 737 740 742 744 746 749 752 755 758 760 763 766 768 770 772 773 776 779 781 783 786 788 791 793 795 798 800 801 802 804 807 808 809 811 813 815 816 817 817 818 818 818 819 819 819 819 820 820 820 820 820 820 820 820 820 820 820 820 820 820 820 820 820 820 818 816 815 814 814 813 813 812 812 811 810 809 808 808 808 807 806 805
720 724 728 731 734 737 738 741 744 748 751 753 756 759 761 763 765 767 769 772 775 777 779 782 784 787 789 792 794 797 797 799 802 805 806 807 809 811 812 813 814 814 815 815 816 816 816 816 817 817 817 817 817 818 818 818 818 817 817 817 818 818 818 818 818 818 817 816 814 813 812 811 811 810 810 810 809 808 807 806 805 805 804 804 802
716 720 724 727 729 731 735 738 741 744 747 749 752 755 757 760 762 764 766 768 771 774 776 778 781 783 785 788 791 794 794 796 799 802 803 805 807 809 810 811 811 812 812 812 813 813 813 814 814 814 814 815 815 815 816 816 815 815 815 815 816 816 816 816 815 815 814 813 812 811 810 809 808 808 807 807 806 805 805 804 803 802 801 801 799
713 717 720 722 725 728 732 736 739 742 744 746 748 751 753 756 758 761 763 765 768 770 773 775 777 779 782 785 788 791 791 792 795 798 800 801 804 806 807 808 809 809 810 810 810 810 810 811 811 811 811 811 812 812 812 813 813 813 813 813 814 814 814 814 813 812 811 810 809 809 808 807 806 806 805 804 803 803 802 802 800 799 798 797 796
709 713 716 719 723 726 729 733 736 739 742 744 746 748 750 752 755 757 759 762 764 767 770 772 774 776 778 781 784 787 788 790 792 795 796 798 801 803 805 806 807 807 807 807 807 807 808 808 808 808 808 808 808 809 809 810 810 810 811 811 811 812 812 812 811 810 809 807 807 807 806 804 803 803 802 801 801 800 799 799 798 796 796 794 792
706 710 713 716 720 724 727 730 733 736 739 742 744 746 748 750 752 754 756 759 762 764 767 769 770 772 774 776 780 783 785 787 789 792 794 796 798 800 802 804 804 805 805 805 805 805 805 806 805 805 805 805 806 806 806 807 807 807 808 808 808 809 809 808 808 807 806 805 804 804 803 801 801 801 800 799 798 797 797 796 795 794 793 791 789
704 708 711 715 718 721 725 728 730 733 736 740 743 745 747 748 751 753 754 756 759 761 763 765 767 769 770 772 775 778 779 782 785 789 792 793 796 798 799 801 802 803 803 803 803 803 803 803 803 803 803 803 803 803 803 803 803 804 804 804 805 806 805 805 804 803 803 802 801 801 800 799 799 798 798 797 796 795 795 794 793 792 790 789 787
702 706 709 713 716 719 723 725 728 731 734 737 740 742 744 746 748 751 752 754 756 758 760 762 763 765 767 768 771 774 776 778 781 785 789 791 794 795 797 798 799 800 800 800 800 800 800 800 800 800 800 800 800 801 800 800 800 800 800 801 801 801 801 800 800 800 799 799 798 798 798 798 797 796 796 795 794 793 792 791 790 789 788 786 785
700 704 708 711 714 718 722 723 726 729 732 735 737 739 741 743 745 748 750 752 754 755 757 758 760 763 764 766 770 772 774 776 778 782 786 789 791 792 794 795 796 797 797 797 797 797 797 798 798 798 798 797 798 798 797 797 797 796 797 798 798 797 796 796 795 795 795 795 795 794 795 795 794 793 793 793 792 791 790 789 788 787 785 784 783
699 702 706 709 712 716 719 721 724 727 729 733 735 736 738 740 742 745 747 749 751 753 754 755 757 760 763 765 768 770 772 774 776 780 783 787 789 790 791 793 794 794 794 794 795 795 795 795 795 795 795 794 794 795 794 794 794 793 793 794 794 793 792 792 792 792 791 791 791 791 791 791 791 791 791 790 790 789 787 786 786 784 783 781 779
697 700 704 707 710 713 716 719 722 724 727 730 732 734 735 737 739 741 744 746 748 751 753 754 755 758 760 762 764 767 771 773 774 777 781 784 786 788 789 791 791 792 792 792 792 792 793 793 793 792 792 792 792 792 792 792 791 790 790 790 790 790 789 789 788 788 789 789 788 788 788 789 789 788 788 787 786 785 785 784 783 782 780 778 776
694 698 701 704 707 711 714 717 720 723 725 727 729 731 733 735 738 739 741 744 745 748 751 753 754 754 755 757 760 764 768 770 772 775 778 781 783 785 787 789 789 789 789 789 790 790 790 790 790 790 790 789 789 790 790 790 789 788 788 787 787 787 786 786 785 786 787 787 786 786 786 786 786 785 785 784 783 782 782 781 780 779 777 775 772
692 695 699 702 705 709 712 715 718 721 723 725 727 729 730 733 735 737 739 741 743 745 748 751 752 751 751 755 758 762 766 768 770 773 775 778 781 783 785 787 788 788 787 787 787 787 787 787 787 787 787 787 787 787 788 788 787 787 786 785 784 784 783 784 784 784 785 785 784 784 783 783 783 782 781 781 780 780 779 778 778 777 774 772 769
689 693 697 700 704 708 711 714 716 719 721 723 724 726 728 729 732 734 736 739 741 744 746 749 751 750 751 754 756 760 765 767 768 770 773 776 778 780 783 785 786 786 785 785 785 785 785 784 784 783 784 785 785 785 785 785 785 785 785 784 783 782 781 782 782 782 782 783 783 782 781 780 780 778 777 777 776 776 776 775 774 773 771 770 768
689 694 698 700 704 708 710 713 716 717 720 721 723 725 727 728 730 731 733 737 740 742 745 748 750 750 751 753 755 759 763 764 764 767 771 774 776 777 779 782 783 783 784 784 783 782 782 781 780 780 780 781 782 782 782 783 783 783 783 782 781 780 780 780 781 780 780 780 780 779 778 778 777 776 775 774 773 773 772 771 771 770 769 767 765
691 694 697 700 704 707 709 712 714 716 718 720 722 724 725 727 728 730 732 736 739 741 743 747 749 750 751 752 754 757 759 760 762 764 768 771 773 774 776 780 781 782 783 782 781 779 779 778 778 778 778 778 779 779 779 780 780 780 781 780 779 779 779 779 779 779 778 778 777 777 776 775 774 773 772 771 770 770 769 768 767 766 766 764 761
691 694 698 701 704 706 709 711 713 715 716 718 720 722 723 725 727 729 731 735 737 740 742 745 748 750 750 751 753 754 756 758 760 762 766 769 770 772 775 778 779 780 779 778 777 776 776 776 775 775 775 776 776 776 777 777 778 778 778 778 778 778 778 778 778 778 777 776 775 775 774 773 772 771 770 769 768 767 766 766 765 763 762 761 759
690 693 697 702 705 708 709 711 713 715 716 717 719 721 723 725 727 728 731 734 736 739 741 744 746 748 748 750 751 753 755 756 757 759 764 767 769 771 773 775 776 776 775 774 774 774 773 773 773 773 774 774 774 774 775 775 775 776 776 776 776 776 777 777 777 777 776 775 774 772 771 771 770 769 768 767 766 765 765 764 763 761 760 758 758
690 691 695 700 705 708 710 711 713 714 715 717 719 721 722 724 726 728 731 733 736 738 739 742 744 746 747 748 749 751 754 755 755 757 762 766 768 769 772 773 773 772 771 771 772 772 771 770 771 771 772 773 773 773 773 773 773 773 774 774 775 775 775 775 775 775 774 773 772 770 770 769 768 767 766 766 765 764 763 762 761 760 758 756 755
691 692 694 698 703 707 709 711 712 713 715 717 718 720 722 724 726 728 730 732 734 736 737 739 741 744 746 747 747 750 752 754 755 757 761 765 767 768 769 770 769 769 768 768 769 769 768 769 769 770 770 771 771 771 771 771 771 771 772 773 773 773 774 774 773 772 772 771 770 769 768 767 767 766 765 764 763 762 761 760 759 758 756 754 752
691 693 696 698 702 706 708 710 712 713 715 717 718 720 722 723 725 727 729 730 732 734 736 739 741 743 745 746 746 748 751 753 755 757 759 762 764 765 766 767 766 766 765 765 766 766 767 767 768 768 769 769 769 769 769 769 769 770 771 771 772 772 772 772 771 771 770 770 769 768 767 766 765 764 764 763 762 761 759 758 756 754 753 751 750
692 694 697 699 702 705 708 709 711 713 715 716 718 720 721 722 724 725 727 729 731 734 736 738 740 742 744 746 747 748 750 752 753 755 757 759 761 763 764 764 763 763 763 763 764 764 765 766 766 767 767 767 768 768 768 768 769 769 770 770 770 771 771 770 770 770 769 769 768 767 766 766 764 763 763 761 760 759 758 756 754 753 752 751 748
692 694 696 699 702 705 707 709 711 713 714 716 718 719 720 721 723 724 726 728 730 733 735 737 739 741 743 745 747 749 750 750 751 753 756 758 760 761 762 762 761 761 761 762 762 763 763 764 765 766 766 766 767 767 767 768 768 769 769 769 769 770 770 769 769 769 768 768 767 766 765 764 763 762 761 760 758 757 756 755 753 752 751 749 747
692 693 695 698 701 704 706 708 710 712 714 716 718 719 719 720 722 723 725 727 730 732 734 736 738 740 741 744 748 750 750 750 751 754 756 757 759 760 760 760 759 759 759 760 761 762 763 763 763 763 764 764 765 766 766 767 767 767 768 768 768 768 768 768 767 767 767 766 765 764 763 763 762 761 760 758 757 755 755 754 752 751 749 747 745
690 692 694 696 699 702 705 707 709 712 714 716 718 719 720 721 722 723 726 728 730 732 733 735 737 737 739 742 745 748 749 749 751 753 755 756 757 757 757 758 757 757 758 759 760 761 761 761 760 760 760 762 763 763 763 764 765 766 766 766 767 766 766 766 765 764 764 763 764 764 763 762 761 760 758 757 755 754 753 752 751 749 747 744 741
689 691 693 694 698 701 703 706 709 712 715 717 718 719 720 721 723 725 727 729 730 731 732 734 735 736 738 741 743 746 748 749 750 752 753 754 755 755 756 756 756 757 757 758 759 760 759 759 758 758 758 759 760 760 760 761 763 764 764 764 765 765 764 764 763 762 762 762 763 763 763 761 760 758 757 756 754 753 752 750 748 747 745 742 739
688 690 692 695 697 700 703 706 709 712 715 716 718 718 720 722 724 726 727 729 731 731 732 733 734 736 738 740 743 745 746 747 749 750 751 752 753 754 755 756 756 756 757 758 759 758 757 757 757 756 756 757 757 757 759 760 761 762 762 763 763 763 763 762 762 762 762 762 762 762 761 760 759 757 756 755 753 752 750 748 746 745 742 740 738
689 691 693 696 698 700 703 707 709 711 713 715 716 717 719 721 724 726 728 730 731 731 731 732 734 736 738 741 743 744 745 746 748 749 750 751 752 753 754 755 755 756 757 757 757 756 756 755 755 755 755 755 756 757 759 760 760 761 761 762 762 762 762 761 760 760 761 761 761 761 760 758 757 756 755 754 752 750 748 747 745 743 741 739 736
691 693 694 696 698 701 704 707 708 710 711 713 714 716 718 720 723 725 727 729 730 731 731 732 734 737 739 741 742 743 744 746 747 748 749 751 752 753 754 755 755 756 756 756 756 755 754 754 754 754 755 756 757 757 758 759 760 760 761 762 762 760 760 759 759 760 760 760 760 759 758 757 756 755 754 752 751 749 747 745 744 742 740 738 735
693 694 695 696 698 700 702 705 706 708 710 712 713 716 718 719 721 723 725 726 728 730 732 734 736 738 739 741 742 743 744 745 746 748 749 750 752 753 754 755 755 755 755 756 755 755 754 754 754 755 756 756 757 758 758 759 760 761 761 761 759 758 759 759 760 760 760 760 759 758 758 757 756 754 753 751 750 748 746 744 743 741 739 737 735
694 695 696 697 698 699 701 703 705 707 710 712 713 715 717 718 720 722 723 724 727 729 733 735 737 738 740 741 742 743 744 745 746 748 749 750 752 753 754 754 753 753 754 755 755 754 754 754 755 755 756 757 758 759 760 761 760 760 761 760 759 759 761 761 760 760 760 760 759 758 757 756 755 754 752 750 749 747 745 744 742 741 739 737 735
693 695 696 697 698 699 701 703 705 707 710 712 714 715 717 719 720 721 723 725 727 729 732 735 736 738 740 741 742 744 744 746 747 748 749 751 752 753 753 752 751 751 752 752 753 754 754 755 756 756 757 758 759 760 760 760 760 760 760 759 759 760 762 761 760 760 760 759 758 757 756 755 754 753 751 750 748 747 745 743 742 740 738 736 733
693 693 695 697 698 700 702 704 706 708 710 712 714 716 717 719 720 722 723 726 728 730 733 735 736 738 740 742 743 744 745 747 748 749 750 751 752 752 752 751 750 749 750 751 752 753 754 755 756 757 758 759 759 760 759 759 759 759 758 757 758 760 761 760 760 760 759 758 757 756 755 754 753 752 751 749 748 746 744 743 741 739 737 734 732
693 694 696 697 699 700 702 704 707 709 710 712 714 715 717 718 720 722 723 725 728 729 732 734 736 737 739 740 742 744 746 747 748 749 750 751 751 751 751 750 750 750 750 751 752 753 754 755 756 757 758 759 759 759 759 759 759 758 757 757 759 760 759 758 758 758 757 757 756 755 754 753 752 751 750 749 747 746 744 743 741 738 736 733 731
694 696 697 698 700 702 703 705 707 708 709 711 713 715 716 718 719 721 722 724 726 727 729 732 733 734 737 739 740 742 744 745 745 746 748 749 749 750 749 749 749 750 751 751 752 753 754 755 756 757 758 759 759 760 760 760 759 759 759 759 759 759 758 757 757 757 756 756 755 755 754 753 752 751 750 748 747 746 744 742 739 737 735 733 730
695 697 699 700 701 702 703 705 706 707 709 711 712 714 716 717 719 720 722 723 725 726 728 730 731 733 735 738 739 741 742 743 742 743 745 746 747 748 748 749 749 750 750 751 752 753 754 755 756 756 757 758 758 759 759 759 758 758 759 758 758 757 757 757 756 756 756 756 755 754 754 753 752 751 750 748 747 745 743 741 739 737 735 732 730
696 698 699 701 702 703 704 705 706 708 709 711 711 713 716 718 719 720 722 723 725 726 728 730 732 733 735 737 739 740 741 742 741 742 743 744 745 746 747 748 749 750 750 751 751 752 753 754 755 755 755 756 757 757 757 757 757 758 758 757 756 756 756 756 755 756 756 755 755 754 754 753 752 751 749 748 746 744 742 740 738 736 734 732 730
696 698 699 701 702 703 704 705 707 708 710 711 712 714 716 718 719 721 722 723 725 726 727 729 732 734 736 737 739 740 741 741 741 742 742 744 745 746 747 748 748 749 749 749 750 750 751 752 753 753 754 754 755 755 755 756 757 757 757 756 756 756 756 755 755 755 755 755 754 754 753 753 752 750 749 747 745 744 742 740 738 736 735 732 730
696 698 699 700 701 703 704 706 707 709 710 711 713 715 717 718 719 720 722 723 725 726 727 730 732 735 737 737 738 740 741 741 741 741 742 743 744 745 746 746 747 747 748 748 749 749 750 750 751 752 752 753 754 754 755 755 756 756 756 756 755 755 755 755 755 755 755 755 755 754 753 752 751 750 748 747 745 744 741 740 738 736 734 732 730
697 698 699 701 702 703 705 706 708 710 711 713 714 716 717 718 719 720 722 723 725 726 728 729 731 734 735 736 737 738 739 739 740 740 742 742 743 743 744 744 746 747 748 749 749 750 751 751 751 751 752 752 753 753 754 755 755 756 756 755 755 755 755 755 755 755 755 755 754 754 753 752 751 749 748 747 745 743 741 740 738 736 734 732 730
697 698 700 701 703 704 705 707 709 711 712 713 714 716 717 718 719 720 722 723 725 726 727 729 730 732 734 735 736 737 738 738 739 739 740 740 740 741 741 743 745 747 748 748 749 750 751 751 751 751 751 752 752 753 753 754 754 754 755 755 755 755 755 755 755 755 755 755 754 753 753 751 750 749 748 746 745 743 741 740 738 736 735 733 730
698 699 701 702 703 705 705 707 709 710 711 711 714 716 717 718 719 721 722 723 725 726 726 728 729 730 732 733 735 735 737 738 737 737 738 738 739 740 741 742 744 746 747 748 749 750 750 750 750 750 751 751 752 752 752 753 753 753 753 754 754 754 753 753 754 754 754 754 753 753 752 751 750 749 747 746 745 743 741 740 738 737 735 733 730
700 701 702 703 704 706 706 707 709 710 711 712 714 716 717 718 720 721 722 723 724 724 725 726 727 728 730 732 733 734 735 736 736 736 736 736 738 740 741 742 744 745 746 747 748 749 749 749 749 749 750 750 751 751 752 752 752 752 752 752 752 752 752 752 753 753 752 752 752 752 751 751 749 748 747 746 745 743 741 739 738 737 735 733 730
701 702 703 704 705 706 708 709 709 710 711 712 714 715 716 718 719 720 720 721 722 722 723 724 726 728 729 730 732 733 734 735 736 736 736 736 737 738 740 741 743 744 745 745 747 748 749 748 748 748 748 749 749 750 750 751 751 752 751 750 750 751 751 751 751 751 751 751 751 751 751 750 749 748 747 745 744 743 741 740 739 737 735 733 730
702 703 704 705 706 707 708 709 709 710 711 712 714 715 715 716 717 719 720 721 722 723 724 725 727 728 729 730 731 732 733 733 734 735 735 735 736 737 738 739 741 742 743 744 745 746 747 748 747 747 747 747 748 749 749 749 750 750 749 749 749 750 750 750 750 750 750 749 749 749 749 749 748 747 746 745 744 742 741 740 739 737 735 733 731
703 704 705 706 706 707 708 708 708 709 710 711 712 714 715 716 717 718 720 721 723 724 725 725 726 727 728 728 729 730 730 731 732 732 733 734 735 735 736 737 739 740 742 742 743 744 745 746 747 746 746 746 746 747 748 748 748 748 748 748 749 749 749 749 749 749 748 748 748 748 748 748 748 747 745 744 743 743 742 740 739 737 735 733 731